Weather History for San Sebastian, Spain

Change the Weather History Date:

Saturday, September 21, 2013

  Actual Average Record
Temperature  
Mean Temperature 62 °F -  
Max Temperature 68 °F 69 °F 87 °F (2012)
Min Temperature 57 °F 56 °F 50 °F (2005)
Degree Days  
Heating Degree Days 2    
Growing Degree Days 12 (Base 50)    
Moisture  
Dew Point 59 °F    
Average Humidity 85    
Maximum Humidity 100    
Minimum Humidity 73    
Precipitation  
Precipitation 0.00 in - - ()
Sea Level Pressure  
Sea Level Pressure 30.28 in    
Wind  
Wind Speed 3 mph ()    
Max Wind Speed 7 mph    
Max Gust Speed -    
Visibility 6.2 miles    
Events      
Averages and records for this station are not official NWS values.
T = Trace of Precipitation, MM = Missing Value Source: Averaged Metar Reports

Daily Weather History Graph

Daily Weather History Graph

Search for Another Location

Airport:

Trip Planner

Search our weather history database for the weather conditions in past years. The results will help you decide how hot, cold, wet, or windy it might be!

Date:

Astronomy

Sep. 21, 2013 Rise Set
Actual Time 7:53 AM CEST 8:06 PM CEST
Civil Twilight 7:24 AM CEST 8:34 PM CEST
Nautical Twilight 6:51 AM CEST 9:08 PM CEST
Astronomical Twilight 6:16 AM CEST 9:42 PM CEST
Moon 9:02 PM CEST (9/21) 10:01 AM CEST (9/21)
Length of Visible Light 13h 09m
Length of Day
12h 13m
Waning Gibbous, 95% of the Moon is Illuminated
Sep 21
Waning Gibbous
Sep 27
Last Quarter
Oct 5
New
Oct 12
First Quarter
Oct 19
Full

Hourly Weather History & Observations

Time (CEST) Temp. Dew Point Humidity Pressure Visibility Wind Dir Wind Speed Gust Speed Precip Events Conditions
5:30 AM 57.2 °F 57.2 °F 100% 30.24 in 6.2 mi Variable 1.2 mph - N/A   Scattered Clouds
6:00 AM 57.2 °F 57.2 °F 100% 30.24 in 6.2 mi Variable 2.3 mph - N/A   Scattered Clouds
6:30 AM 57.2 °F 57.2 °F 100% 30.24 in 6.2 mi Variable 2.3 mph - N/A   Partly Cloudy
7:00 AM 57.2 °F 57.2 °F 100% 30.24 in 6.2 mi Variable 1.2 mph - N/A   Scattered Clouds
7:30 AM 57.2 °F 57.2 °F 100% 30.24 in 6.2 mi Calm Calm - N/A   Scattered Clouds
8:00 AM 57.2 °F 57.2 °F 100% 30.27 in 6.2 mi Calm Calm - N/A   Partly Cloudy
8:30 AM 57.2 °F 57.2 °F 100% 30.27 in 6.2 mi Variable 1.2 mph - N/A   Partly Cloudy
9:00 AM 57.2 °F 57.2 °F 100% 30.27 in 6.2 mi Variable 1.2 mph - N/A   Partly Cloudy
9:30 AM 59.0 °F 59.0 °F 100% 30.27 in 6.2 mi SE 3.5 mph - N/A   Partly Cloudy
10:00 AM 60.8 °F 59.0 °F 94% 30.27 in 6.2 mi Variable 2.3 mph - N/A   Partly Cloudy
10:30 AM 62.6 °F 59.0 °F 88% 30.30 in 6.2 mi Variable 1.2 mph - N/A   Partly Cloudy
11:00 AM 64.4 °F 59.0 °F 83% 30.30 in 6.2 mi Variable 2.3 mph - N/A   Partly Cloudy
11:30 AM 68.0 °F 60.8 °F 78% 30.30 in 6.2 mi Calm Calm - N/A   Scattered Clouds
12:00 PM 66.2 °F 60.8 °F 83% 30.30 in 6.2 mi Variable 2.3 mph - N/A   Scattered Clouds
12:30 PM 68.0 °F 60.8 °F 78% 30.30 in 6.2 mi NNE 5.8 mph - N/A   Partly Cloudy
1:00 PM 68.0 °F 59.0 °F 73% 30.30 in 6.2 mi North 3.5 mph - N/A   Partly Cloudy
1:30 PM 68.0 °F 59.0 °F 73% 30.30 in 6.2 mi North 6.9 mph - N/A   Partly Cloudy
2:00 PM 68.0 °F 59.0 °F 73% 30.30 in 6.2 mi North 5.8 mph - N/A   Partly Cloudy
2:30 PM 68.0 °F 59.0 °F 73% 30.30 in 6.2 mi North 6.9 mph - N/A   Partly Cloudy
3:00 PM 68.0 °F 59.0 °F 73% 30.30 in - North 6.9 mph - N/A   Clear
3:30 PM 68.0 °F 59.0 °F 73% 30.27 in 6.2 mi North 6.9 mph - N/A   Partly Cloudy
4:00 PM 68.0 °F 59.0 °F 73% 30.27 in 6.2 mi North 4.6 mph - N/A   Partly Cloudy
4:30 PM 66.2 °F 59.0 °F 78% 30.27 in 6.2 mi North 6.9 mph - N/A   Partly Cloudy
5:00 PM 66.2 °F 59.0 °F 78% 30.27 in 6.2 mi North 6.9 mph - N/A   Partly Cloudy
5:30 PM 68.0 °F 59.0 °F 73% 30.27 in 6.2 mi NNE 5.8 mph - N/A   Partly Cloudy
6:00 PM 66.2 °F 60.8 °F 83% 30.27 in 6.2 mi NNE 4.6 mph - N/A   Partly Cloudy
6:30 PM 66.2 °F 60.8 °F 83% 30.27 in 6.2 mi Variable 2.3 mph - N/A   Partly Cloudy
7:00 PM 66.2 °F 60.8 °F 83% 30.27 in 6.2 mi NNE 4.6 mph - N/A   Partly Cloudy
7:30 PM 66.2 °F 60.8 °F 83% 30.27 in 6.2 mi NNE 4.6 mph - N/A   Partly Cloudy
8:00 PM 66.2 °F 59.0 °F 78% 30.27 in 6.2 mi NE 4.6 mph - N/A   Partly Cloudy
8:30 PM 64.4 °F 59.0 °F 83% 30.27 in 6.2 mi Variable 1.2 mph - N/A   Partly Cloudy
9:00 PM 64.4 °F 59.0 °F 83% 30.27 in 6.2 mi Variable 1.2 mph - N/A   Scattered Clouds
9:30 PM 62.6 °F 59.0 °F 88% 30.30 in 6.2 mi Variable 1.2 mph - N/A   Scattered Clouds